Regional Weather Roundup
Issued by NWS

Home | Current Version | Previous Version | Text Only | Print | Product List | Glossary Off
Versions: 1 2 3 4 5 6 7 8 9 10 11 12 13 14 15 16 17 18 19 20 21 22 23 24 25 26 27 28 29 30 31 32 33 34 35 36 37 38 39 40 41 42 43 44 45 46 47 48 49 50

000
ASUS45 KCYS 080810
RWRWY

WYOMING REGIONAL WEATHER ROUNDUP
NATIONAL WEATHER SERVICE CHEYENNE WY
100 AM MST MON FEB 08 2016

NOTE:  "FAIR" INDICATES FEW OR NO CLOUDS BELOW 12,000 FEET
WITH NO SIGNIFICANT WEATHER AND/OR OBSTRUCTIONS TO VISIBILITY.

WYZ001-080900-
YELLOWSTONE NATIONAL PARK

CITY           SKY/WX    TMP DP  RH WIND       PRES   REMARKS
LK YELLOWSTONE   N/A     22  15  75 CALM      30.55S
W YELLOWSTONE  NOT AVBL

$$
WYZ002>013-054>058-071-098>099-080900-
NORTHERN WYOMING

CITY           SKY/WX    TMP DP  RH WIND       PRES   REMARKS
JACKSON        FAIR      12   9  85 N7        30.55S WCI   2
CODY           FAIR      25  12  58 CALM      30.41R
GREYBULL       CLOUDY    29  20  69 S5        30.44R WCI  24
WORLAND        CLOUDY    28  21  75 SE3       30.44R
SHERIDAN       MOCLDY    28  15  58 W8        30.42F WCI  20
BUFFALO        CLOUDY    25  11  55 S3        30.39S
GILLETTE       FAIR      22   9  57 W15       30.37F WCI   9
HULETT         FAIR      27  10  50 W3        30.36S
NEWCASTLE      FAIR      23   9  54 NW15G22   30.33F WCI  10

$$
WYZ014>020-022>026-101>103-080900-
CENTRAL WYOMING

CITY           SKY/WX    TMP DP  RH WIND       PRES   REMARKS
BIG PINEY      FAIR      26  15  63 NE14      30.49F WCI  14
PINEDALE       FAIR      28  16  59 W15G21    30.47S WCI  17
DUBOIS         PTSUNNY   32  18  55 NW17G33   30.44S WCI  21
LANDER         FAIR      18  11  74 CALM      30.40F
RIVERTON       FAIR      17  11  77 W10       30.41F WCI   5
CASPER         CLOUDY    23  12  62 SW16      30.39F WCI  10
DOUGLAS        CLOUDY    20  12  71 NW10        N/A  WCI   9

$$
WYZ021-027>030-104>119-080900-
SOUTHERN WYOMING

CITY           SKY/WX    TMP DP  RH WIND       PRES   REMARKS
EVANSTON       FAIR      22  14  71 SW7       30.60R WCI  13
FORT BRIDGER   SUNNY     27  18  69 W23       30.59S WCI  12
ROCK SPRINGS   FAIR      26  16  65 W22       30.50R WCI  12
DIXON          CLOUDY    20  15  81 SE6       30.55S WCI  12
RAWLINS        CLOUDY    26  17  68 W14       30.44F WCI  14
SARATOGA       CLOUDY    30  21  69 W22       30.44F WCI  17
LARAMIE          N/A     22  14  71 W3        30.33F
CHEYENNE       MOCLDY    20  11  68 N7        30.32F WCI  11
TORRINGTON     FAIR      23  10  57 NW10G20   30.38F WCI  12
PINE BLUFFS    FAIR      19  10  68 NW13      30.36F WCI   7

$$



USA.gov is the U.S. government's official web portal to all federal, state and local government web resources and services.